W7KKE-3 Weather Reports


Display with metric or nautical units.
time (UTC)temp
F
wind
direction
speed
MPH
gust
MPH
rain 1hr
in
rain 24hr
in
rain mn
in
humidity
%
barometer
mb
20170426211728 55 270 6.0 11.0 0.00 0.56 0.27 100 1016.8
20170426211228 55 270 6.0 11.0 0.00 0.56 0.27 100 1016.9
20170426210728 54 264 7.0 11.0 0.00 0.56 0.27 100 1016.9
20170426210228 54 282 6.0 11.0 0.00 0.64 0.27 100 1017.0
20170426205955 54 267 5.0 14.0 0.00 0.64 0.27 100 1016.9
20170426205728 54 267 5.0 14.0 0.00 0.64 0.27 100 1016.9
20170426205228 54 260 8.0 14.0 0.00 0.64 0.27 100 1017.1
20170426204748 54 275 7.0 14.0 0.00 0.64 0.27 100 1017.1
20170426204227 54 281 10.0 13.0 0.00 0.64 0.27 100 1017.1
20170426203728 54 305 9.0 13.0 0.00 0.64 0.27 100 1017.0
20170426203229 54 275 9.0 13.0 0.00 0.64 0.27 100 1016.9
20170426202728 54 261 9.0 14.0 0.00 0.64 0.27 100 1016.8
20170426201228 53 306 8.0 15.0 0.03 0.64 0.27 100 1016.4
20170426200727 53 303 8.0 15.0 0.03 0.64 0.27 100 1016.4
20170426200228 53 281 9.0 15.0 0.06 0.63 0.27 100 1016.5
20170426195727 53 296 10.0 13.0 0.06 0.63 0.27 100 1016.4
20170426195228 54 287 9.0 12.0 0.06 0.63 0.27 100 1016.4
20170426194729 53 278 7.0 12.0 0.06 0.63 0.27 100 1016.3
20170426194228 53 271 6.0 12.0 0.06 0.63 0.27 100 1016.2
20170426193727 53 289 8.0 12.0 0.06 0.63 0.27 100 1016.3
20170426193230 53 278 7.0 12.0 0.06 0.63 0.27 100 1016.2
20170426192728 53 260 9.0 11.0 0.06 0.63 0.27 100 1016.0
20170426192228 52 273 6.0 8.0 0.06 0.63 0.27 100 1016.0
20170426191728 52 310 5.0 15.0 0.06 0.63 0.27 100 1016.1
20170426191229 52 270 5.0 15.0 0.03 0.63 0.27 100 1016.1
20170426190728 52 275 5.0 15.0 0.03 0.63 0.26 100 1015.9
20170426190228 52 277 10.0 14.0 0.00 0.61 0.23 100 1015.9
20170426185728 52 287 8.0 12.0 0.00 0.61 0.21 100 1015.8
20170426185228 52 274 7.0 12.0 0.00 0.61 0.21 100 1015.6
20170426183228 52 284 6.0 13.0 0.00 0.61 0.21 100 1015.3
20170426182728 52 275 6.0 13.0 0.00 0.61 0.21 100 1015.2
20170426182228 52 298 5.0 13.0 0.00 0.61 0.21 100 1015.2
20170426181728 51 268 9.0 14.0 0.00 0.61 0.21 100 1015.3
20170426181236 51 239 9.0 14.0 0.00 0.61 0.21 100 1015.4
20170426180728 51 295 8.0 14.0 0.00 0.61 0.21 100 1015.5
20170426180228 51 282 8.0 14.0 0.00 0.61 0.21 100 1015.5
20170426175727 51 292 9.0 14.0 0.00 0.61 0.21 100 1015.6
20170426175228 51 278 10.0 13.0 0.00 0.61 0.21 100 1015.5
20170426174728 51 273 9.0 16.0 0.00 0.61 0.21 100 1015.5
20170426174227 51 284 8.0 16.0 0.00 0.61 0.21 100 1015.3
20170426173727 51 285 10.0 16.0 0.00 0.61 0.21 100 1015.2
20170426173228 51 289 8.0 16.0 0.00 0.61 0.21 100 1015.2
20170426172727 51 295 9.0 13.0 0.00 0.61 0.21 100 1015.2
20170426172228 51 302 9.0 12.0 0.00 0.61 0.21 100 1015.0
20170426171728 51 306 9.0 14.0 0.00 0.61 0.21 100 1014.9
20170426171228 51 298 7.0 14.0 0.01 0.61 0.21 100 1014.8
20170426170728 51 275 7.0 14.0 0.01 0.61 0.21 100 1014.8
20170426170228 51 320 9.0 12.0 0.01 0.60 0.21 100 1014.8
20170426165727 51 295 8.0 12.0 0.01 0.60 0.21 100 1014.8
20170426165228 51 280 9.0 11.0 0.01 0.60 0.21 100 1014.7
20170426164728 52 291 7.0 11.0 0.01 0.60 0.21 100 1014.6
20170426164228 51 278 7.0 11.0 0.01 0.60 0.21 100 1014.6
20170426163728 51 288 6.0 10.0 0.01 0.60 0.21 100 1014.6
20170426163228 51 292 5.0 9.0 0.01 0.60 0.21 100 1014.5
20170426162728 51 281 5.0 9.0 0.01 0.60 0.21 100 1014.4
20170426162228 51 291 6.0 9.0 0.01 0.60 0.21 100 1014.3
20170426161728 50 259 5.0 7.0 0.01 0.60 0.21 100 1014.3
20170426161228 50 301 4.0 6.0 0.01 0.60 0.21 100 1014.2
20170426160727 50 291 4.0 7.0 0.01 0.60 0.20 100 1014.2
20170426160228 50 340 3.0 7.0 0.01 0.59 0.20 100 1014.1
20170426155727 49 284 4.0 7.0 0.01 0.59 0.20 100 1014.1
20170426155228 49 301 4.0 8.0 0.02 0.59 0.20 100 1014.2
20170426154728 49 294 5.0 8.0 0.02 0.59 0.20 100 1014.0
20170426154228 49 274 6.0 8.0 0.02 0.59 0.20 100 1014.0
20170426151228 50 266 7.0 16.0 0.02 0.59 0.20 100 1013.8
20170426150727 50 287 9.0 13.0 0.02 0.59 0.19 100 1013.8
20170426150228 50 282 7.0 10.0 0.02 0.57 0.19 100 1013.7
20170426145727 50 284 6.0 10.0 0.02 0.57 0.19 100 1013.7
20170426145227 50 266 5.0 10.0 0.01 0.57 0.19 100 1013.8
20170426144729 50 264 5.0 11.0 0.01 0.57 0.18 100 1013.8
20170426144228 50 267 5.0 11.0 0.01 0.57 0.18 100 1013.8
20170426143728 50 257 6.0 11.0 0.01 0.57 0.18 100 1013.8
20170426143228 50 273 4.0 10.0 0.01 0.57 0.18 100 1013.8
20170426142728 50 268 6.0 10.0 0.01 0.57 0.18 100 1013.8
20170426142228 50 256 6.0 7.0 0.01 0.57 0.17 100 1013.9
20170426141728 50 268 3.0 6.0 0.01 0.57 0.17 100 1013.8
20170426141227 50 238 5.0 8.0 0.02 0.57 0.17 100 1013.8
20170426140728 50 243 2.0 8.0 0.02 0.57 0.17 100 1013.7
20170426140228 49 261 4.0 8.0 0.03 0.55 0.17 100 1013.6
20170426135728 50 266 2.0 8.0 0.03 0.55 0.17 100 1013.6
20170426135228 50 207 4.0 6.0 0.04 0.55 0.17 100 1013.6
20170426133228 50 204 3.0 7.0 0.04 0.55 0.17 100 1013.5
20170426132728 50 239 1.0 7.0 0.04 0.55 0.17 100 1013.4
20170426132228 49 263 2.0 7.0 0.05 0.55 0.16 100 1013.4
20170426131728 50 288 3.0 7.0 0.05 0.55 0.16 100 1013.5
20170426131227 50 274 4.0 6.0 0.08 0.55 0.16 100 1013.5
20170426130727 50 275 3.0 6.0 0.08 0.55 0.16 100 1013.5
20170426130228 50 301 2.0 9.0 0.10 0.47 0.15 100 1013.6
20170426125727 50 288 3.0 9.0 0.10 0.47 0.15 100 1013.6
20170426125227 49 296 5.0 9.0 0.09 0.47 0.14 100 1013.7
20170426124728 50 296 6.0 14.0 0.09 0.47 0.14 100 1013.6
20170426124227 49 288 6.0 14.0 0.08 0.47 0.13 100 1013.6
20170426123727 50 273 6.0 14.0 0.08 0.47 0.13 100 1013.6
20170426123229 50 285 9.0 14.0 0.08 0.47 0.12 100 1013.6
20170426122728 50 254 7.0 15.0 0.08 0.47 0.12 100 1013.6
20170426122227 51 288 7.0 15.0 0.07 0.47 0.12 100 1013.6
20170426121728 51 280 7.0 15.0 0.07 0.47 0.11 100 1013.7
20170426121227 51 268 8.0 19.0 0.04 0.47 0.11 100 1013.6
20170426115227 51 267 8.0 14.0 0.01 0.43 0.04 100 1013.7
20170426114728 51 266 9.0 13.0 0.01 0.43 0.04 100 1013.8
20170426114228 51 270 7.0 13.0 0.01 0.43 0.04 100 1013.8
20170426113727 52 264 7.0 15.0 0.01 0.43 0.04 100 1013.7
20170426113228 51 266 7.0 15.0 0.01 0.43 0.04 100 1013.8
20170426112727 51 277 9.0 15.0 0.01 0.43 0.04 100 1013.7
20170426112229 51 264 8.0 15.0 0.02 0.43 0.04 100 1013.7
20170426111728 52 280 5.0 15.0 0.02 0.43 0.04 100 1013.7
20170426111229 51 273 9.0 15.0 0.01 0.43 0.04 100 1013.7
20170426110727 51 288 8.0 14.0 0.01 0.43 0.04 100 1013.9
20170426110228 52 268 9.0 17.0 0.01 0.42 0.03 100 1013.8
20170426105727 52 238 9.0 17.0 0.01 0.42 0.03 100 1014.0
20170426105227 52 273 10.0 17.0 0.01 0.42 0.03 100 1014.2
20170426104728 52 266 11.0 16.0 0.01 0.42 0.03 100 1014.2
20170426104228 52 254 9.0 16.0 0.02 0.42 0.03 100 1014.2
20170426103727 52 268 10.0 15.0 0.02 0.42 0.03 100 1014.3
20170426103228 52 261 7.0 13.0 0.02 0.42 0.03 100 1014.3
20170426102727 52 268 7.0 13.0 0.02 0.42 0.03 100 1014.2
20170426102227 52 247 8.0 13.0 0.01 0.42 0.03 100 1014.2
20170426101729 52 268 8.0 13.0 0.01 0.42 0.03 100 1014.1
20170426101227 52 226 8.0 12.0 0.01 0.42 0.02 100 1014.1
20170426100727 52 243 6.0 9.0 0.01 0.42 0.02 100 1014.2
20170426100228 52 277 5.0 12.0 0.01 0.41 0.02 100 1014.2
20170426095727 52 233 3.0 12.0 0.01 0.41 0.02 100 1014.2
20170426095227 52 217 4.0 12.0 0.01 0.41 0.02 100 1014.3
20170426094728 52 229 5.0 14.0 0.01 0.41 0.02 100 1014.2
20170426094228 52 191 6.0 14.0 0.00 0.41 0.02 100 1014.3
20170426093727 52 232 4.0 14.0 0.00 0.41 0.01 100 1014.2
20170426093228 52 211 7.0 12.0 0.00 0.41 0.01 100 1014.3
20170426092727 52 294 4.0 12.0 0.00 0.41 0.01 100 1014.3
20170426091728 52 254 6.0 12.0 0.00 0.41 0.01 100 1014.4
20170426091227 52 246 3.0 12.0 0.01 0.41 0.01 100 1014.4
20170426090727 52 250 4.0 12.0 0.01 0.41 0.01 100 1014.4
20170426090229 52 260 7.0 12.0 0.01 0.40 0.01 100 1014.4
20170426085727 52 221 8.0 11.0 0.01 0.40 0.01 100 1014.4
20170426085229 52 252 5.0 11.0 0.01 0.40 0.01 100 1014.2
20170426084730 52 280 5.0 12.0 0.01 0.40 0.01 100 1014.1
20170426084227 52 221 4.0 12.0 0.01 0.40 0.01 100 1013.9
20170426083727 52 212 8.0 12.0 0.01 0.40 0.01 100 1014.2
20170426083227 52 240 4.0 9.0 0.01 0.40 0.01 100 1014.3
20170426082727 52 256 4.0 16.0 0.01 0.40 0.01 100 1014.3
20170426082227 52 267 8.0 16.0 0.01 0.40 0.01 100 1014.5
20170426081728 52 249 8.0 16.0 0.01 0.40 0.01 100 1014.6
20170426081228 52 247 9.0 15.0 0.00 0.40 0.01 100 1014.5
20170426080727 52 263 7.0 12.0 0.00 0.40 0.01 100 1014.5
20170426080229 52 259 5.0 12.0 0.00 0.40 0.00 100 1014.5
20170426075727 52 270 5.0 12.0 0.00 0.40 0.00 100 1014.6
20170426075227 52 310 4.0 12.0 0.00 0.40 0.00 100 1014.5
20170426074728 52 211 4.0 12.0 0.00 0.40 0.00 100 1014.3
20170426074227 52 197 6.0 12.0 0.00 0.40 0.00 100 1014.2
20170426073727 52 194 6.0 10.0 0.00 0.40 0.00 100 1014.1
20170426073228 52 253 4.0 16.0 0.00 0.40 0.00 100 1014.0
20170426072727 52 256 3.0 16.0 0.00 0.40 0.00 100 1014.2
20170426072227 52 221 8.0 16.0 0.00 0.40 0.00 100 1014.2
20170426071729 52 207 10.0 11.0 0.00 0.40 0.00 100 1014.1
20170426071227 52 270 7.0 18.0 0.00 0.40 0.00 100 1014.2
20170426070727 52 194 6.0 18.0 0.00 0.40 0.00 100 1014.2
20170426070228 52 245 6.0 18.0 0.00 0.43 0.00 100 1014.1
20170426065727 52 222 12.0 18.0 0.00 0.43 0.40 100 1014.2
20170426065227 52 203 7.0 17.0 0.00 0.43 0.40 100 1014.3
20170426064729 52 222 8.0 16.0 0.00 0.43 0.40 100 1014.3
20170426064227 52 204 8.0 14.0 0.00 0.43 0.40 100 1014.3
20170426063727 52 226 5.0 13.0 0.00 0.43 0.40 100 1014.0
20170426063228 52 235 6.0 13.0 0.00 0.43 0.40 100 1014.0
20170426062727 52 229 8.0 17.0 0.00 0.43 0.40 100 1014.0
20170426062227 52 222 6.0 17.0 0.00 0.43 0.40 100 1013.8
20170426061728 52 224 9.0 17.0 0.00 0.43 0.40 100 1014.0
20170426061228 53 229 8.0 14.0 0.00 0.43 0.40 100 1014.0
20170426060727 52 215 6.0 17.0 0.00 0.43 0.40 100 1013.8
20170426060229 52 225 8.0 17.0 0.00 0.43 0.40 100 1013.9
20170426055727 52 240 8.0 17.0 0.00 0.43 0.40 100 1013.9
20170426055227 52 232 8.0 16.0 0.00 0.43 0.40 100 1013.9
20170426053727 52 212 5.0 20.0 0.00 0.43 0.40 100 1013.9
20170426053227 52 233 8.0 20.0 0.00 0.43 0.40 100 1013.8
20170426052727 52 207 6.0 14.0 0.00 0.43 0.40 100 1013.9
20170426052228 52 221 7.0 20.0 0.00 0.43 0.40 100 1013.8
20170426051728 52 210 11.0 20.0 0.00 0.43 0.40 100 1013.9
20170426051228 52 228 8.0 20.0 0.00 0.43 0.40 100 1013.7
20170426050727 53 239 9.0 15.0 0.00 0.43 0.40 100 1013.7
20170426050228 52 246 7.0 15.0 0.01 0.43 0.40 100 1013.6
20170426045727 52 236 7.0 14.0 0.01 0.43 0.40 100 1013.5
20170426045229 52 233 8.0 15.0 0.01 0.43 0.40 100 1013.1
20170426044728 52 211 6.0 15.0 0.01 0.43 0.40 100 1013.4
20170426044227 52 215 7.0 15.0 0.01 0.43 0.40 100 1013.3
20170426043727 52 222 9.0 18.0 0.01 0.43 0.40 100 1013.2
20170426043227 52 186 11.0 18.0 0.01 0.43 0.40 100 1013.2
20170426042728 52 219 7.0 18.0 0.01 0.43 0.40 100 1013.1
20170426042227 53 228 11.0 15.0 0.01 0.43 0.40 100 1013.1
20170426041728 53 224 5.0 14.0 0.01 0.43 0.40 100 1013.0
20170426035727 53 256 6.0 14.0 0.02 0.41 0.39 100 1013.0
20170426035227 53 214 5.0 14.0 0.02 0.41 0.39 100 1013.1
20170426034728 53 204 5.0 12.0 0.02 0.41 0.39 100 1013.1
20170426034228 52 247 4.0 14.0 0.03 0.41 0.39 100 1013.0
20170426033727 53 295 6.0 14.0 0.03 0.41 0.39 100 1013.0
20170426033227 53 197 7.0 14.0 0.03 0.41 0.39 100 1012.9
20170426032727 53 221 6.0 13.0 0.03 0.41 0.39 100 1012.9
20170426032227 53 235 6.0 13.0 0.03 0.41 0.39 100 1012.8
20170426030228 53 238 7.0 14.0 0.02 0.38 0.38 100 1012.3
20170426025727 53 203 8.0 14.0 0.02 0.38 0.37 100 1012.3
20170426025228 53 231 6.0 14.0 0.03 0.38 0.37 100 1012.2
20170426024728 53 215 6.0 16.0 0.03 0.38 0.37 100 1012.2
20170426024227 53 218 5.0 16.0 0.03 0.38 0.37 100 1012.2
20170426023727 53 231 8.0 16.0 0.03 0.38 0.37 100 1012.1
20170426023227 53 239 8.0 11.0 0.04 0.38 0.36 100 1012.2
20170426022727 53 221 2.0 14.0 0.04 0.38 0.36 100 1012.2
20170426022227 53 194 5.0 14.0 0.04 0.38 0.36 100 1012.2
20170426021728 53 222 7.0 14.0 0.04 0.38 0.36 100 1012.0
20170426021227 54 232 7.0 20.0 0.04 0.38 0.36 100 1012.0
20170426020727 54 169 6.0 20.0 0.04 0.38 0.36 100 1011.7
20170426020227 54 145 8.0 20.0 0.04 0.36 0.35 100 1011.7
20170426015727 54 144 10.0 16.0 0.04 0.36 0.35 100 1011.7
20170426015227 54 144 5.0 16.0 0.04 0.36 0.35 100 1011.6
20170426014728 54 144 10.0 19.0 0.04 0.36 0.34 100 1011.7
20170426014227 54 168 8.0 19.0 0.04 0.36 0.34 100 1011.7
20170426012227 54 135 9.0 19.0 0.05 0.36 0.32 100 1011.6
20170426011728 54 162 10.0 18.0 0.05 0.36 0.32 100 1011.6
20170426011227 54 165 9.0 21.0 0.04 0.36 0.32 100 1011.6
20170426010728 54 156 9.0 21.0 0.04 0.36 0.31 100 1011.6
20170426010229 54 187 9.0 21.0 0.04 0.33 0.31 100 1011.6
20170426005727 54 161 12.0 20.0 0.04 0.33 0.31 100 1011.5
20170426005227 54 151 13.0 26.0 0.04 0.33 0.31 100 1011.1
20170426004728 54 133 9.0 26.0 0.04 0.33 0.30 100 1011.2
20170426004227 54 172 11.0 26.0 0.03 0.33 0.29 100 1011.2
20170426003727 54 183 16.0 23.0 0.03 0.33 0.29 100 1011.1
20170426003227 54 176 10.0 27.0 0.04 0.33 0.29 100 1011.4
20170426002727 54 155 8.0 27.0 0.04 0.33 0.28 100 1011.3
20170426002227 54 200 8.0 27.0 0.04 0.33 0.28 100 1011.1
20170426001728 54 126 18.0 26.0 0.04 0.33 0.28 100 1011.0
20170426001227 54 147 9.0 26.0 0.05 0.33 0.27 100 1011.1
20170426000727 54 134 9.0 26.0 0.05 0.33 0.27 100 1011.1
20170426000227 54 158 9.0 33.0 0.05 0.29 0.27 100 1011.1
20170425235728 54 172 12.0 33.0 0.05 0.29 0.27 100 1011.1
20170425235227 54 152 11.0 33.0 0.05 0.29 0.27 100 1011.2
20170425233227 54 165 13.0 27.0 0.05 0.29 0.25 100 1011.4
20170425232728 54 131 12.0 27.0 0.05 0.29 0.25 100 1011.5
20170425232227 54 166 10.0 27.0 0.05 0.29 0.24 100 1011.6
20170425231728 54 172 7.0 20.0 0.05 0.29 0.24 100 1011.6
20170425231227 54 140 7.0 20.0 0.05 0.29 0.23 100 1011.7
20170425230727 54 154 7.0 23.0 0.05 0.29 0.23 100 1011.7
20170425230229 54 70 10.0 23.0 0.07 0.24 0.22 100 1011.5
20170425225728 54 149 9.0 23.0 0.07 0.24 0.22 100 1011.3
20170425225227 54 166 4.0 13.0 0.06 0.24 0.22 100 1011.3
20170425224728 54 123 6.0 13.0 0.06 0.24 0.21 100 1011.2
20170425224227 54 166 4.0 10.0 0.06 0.24 0.21 100 1011.3
20170425223727 54 117 3.0 9.0 0.06 0.24 0.20 100 1011.3
20170425223227 54 158 5.0 8.0 0.06 0.24 0.20 100 1011.4
20170425222727 54 148 4.0 9.0 0.06 0.24 0.19 100 1011.5
20170425222227 54 51 0.0 9.0 0.06 0.24 0.19 100 1011.7
20170425221728 54 152 1.0 9.0 0.06 0.24 0.18 100 1011.7
20170425221227 54 117 6.0 12.0 0.06 0.24 0.17 100 1011.6
20170425215227 54 149 6.0 8.0 0.08 0.18 0.15 100 1011.8
20170425214728 54 131 3.0 8.0 0.08 0.18 0.15 100 1011.8
20170425214227 54 138 1.0 8.0 0.08 0.18 0.15 100 1011.7
20170425213727 54 194 2.0 6.0 0.08 0.18 0.14 100 1011.7
20170425213227 54 107 3.0 10.0 0.08 0.18 0.14 100 1011.6
20170425212727 54 165 3.0 10.0 0.08 0.18 0.14 100 1011.7
20170425212228 53 166 2.0 10.0 0.08 0.18 0.13 100 1011.7